Location: Coopersdale
(40.3556°N, 78.9372°W)
Time: 07:00:57
(UTC+00:00)

Tiros 1 despin weight - Pass Details

Date: 26 January 2021
Orbit: 593 x 642 km, 48.2° (Epoch: 28 February)

Event Time Altitude Azimuth Distance (km) Brightness Sun altitude
Rises 20:34:43 0° 275° (W) 2,889 ? 16.9°
Reaches altitude 10° 20:37:14 10° 286° (WNW) 1,975 ? 16.6°
Maximum altitude 20:41:20 32° 350° (N) 1,041 ? 16.0°
Drops below altitude 10° 20:45:23 10° 55° (NE) 1,950 ? 15.5°
Sets 20:47:52 0° 65° (ENE) 2,846 ? 15.1°
